Regional Weather Roundup
Issued by NWS Jackson, KY

Home | Current Version | Previous Version | Text Only | Print | Product List | Glossary Off
Versions: 1 2 3 4 5 6 7 8 9 10 11 12 13 14 15 16 17 18 19 20 21 22 23 24 25 26 27 28 29 30 31 32 33 34 35 36 37 38 39 40 41 42 43 44 45 46 47 48 49 50

043
ASUS43 KJKL 080810
RWRJKL

EAST KENTUCKY HOURLY WEATHER ROUNDUP
NATIONAL WEATHER SERVICE JACKSON KY
300 AM EST MON FEB 08 2016

NOTE: "FAIR" INDICATES FEW OR NO CLOUDS BELOW 12,000 FEET WITH
NO SIGNIFICANT WEATHER AND/OR OBSTRUCTIONS TO VISIBILITY.

* THESE REPORTS ARE NOT UNDER NWS QUALITY CONTROL AND MAY NOT
  REPORT WEATHER SUCH AS PRECIPITATION AND FOG.

KYZ079-080-083-085-087-088-110-112-115-119-120-080900
...EASTERN KENTUCKY...

CITY           SKY/WX    TMP DP  RH WIND       PRES   REMARKS
JACKSON        CLOUDY    40  21  46 SW6       29.75F
LONDON         CLOUDY    43  20  39 SW8       29.77F
SOMERSET*      CLOUDY    39  23  52 S5        29.78F
MONTICELLO*    CLOUDY    45  25  45 SW16      29.79F
WILLIAMSBURG*  CLOUDY    43  21  42 SW5       29.78F
MIDDLESBORO*   CLEAR     29  26  91 CALM      29.82F
HARLAN APT*    PTSUNNY   32  27  80 CALM      29.80F
HAZARD APT*    CLOUDY   N/A N/A N/A S8        29.76F
BLACK MTN*       N/A     30  21  69 S6          N/A  WCI  24
BIG SANDY*     PTSUNNY   40  23  50 SW5       29.76F
MOREHEAD APT*  CLOUDY    41  21  45 S6        29.74F
$$

KYZ035-036-041-042-044-050-067-078-099-080900
...CENTRAL KENTUCKY...

CITY           SKY/WX    TMP DP  RH WIND       PRES   REMARKS
MT STERLING*   CLOUDY    43  27  52 W8        29.73F
DANVILLE*      CLOUDY    41  27  56 SW6       29.75F
RICHMOND*      CLOUDY    43  21  42 S8        29.74F
LEXINGTON      CLOUDY    42  25  50 SW9       29.72F
FRANKFORT      CLOUDY    43  30  60 W10G20    29.73S
$$

KYZ091>093-OHZ055-061-077-WVZ005-015-034-035-042-080900
...SOUTHERN OHIO/WEST VIRGINIA...

CITY           SKY/WX    TMP DP  RH WIND       PRES   REMARKS
COVINGTON      LGT RAIN  41  34  76 NW12      29.71F
COLUMBUS       LGT RAIN  39  34  81 S6        29.71F WCI  35
DAYTON         LGT RAIN  39  34  82 W6        29.70F WCI  35
WILMINGTON     CLOUDY    43  27  53 W10       29.68F
HUNTINGTON     MOCLDY    38  23  55 S6        29.74F WCI  33
CHARLESTON     MOCLDY    31  25  78 CALM      29.76F
PINEVILLE*       N/A     29  25  83 MISG      29.83F
BECKLEY          N/A     33  21  61 SW6       29.76F WCI  28
$$

VAZ002-007-008-TNZ017-027-036-066-071-080900
...SOUTHWEST VIRGINIA/EAST TENNESSEE...

CITY           SKY/WX    TMP DP  RH WIND       PRES   REMARKS
BRISTOL        CLOUDY    29  25  85 CALM      29.83F
KNOXVILLE      PTCLDY    39  22  50 SW10      29.84F WCI  32
OAK RIDGE      PTCLDY    32  26  78 CALM      29.85F
CROSSVILLE     CLEAR     38  22  52 S6        29.81F WCI  33
NASHVILLE      CLOUDY    47  27  45 W7        29.84F
$$

...KEY TO REMARKS...
VSB - VISIBILITY IN MILES
WCI - WIND CHILL INDEX
HX  - HEAT INDEX

$$




USA.gov is the U.S. government's official web portal to all federal, state and local government web resources and services.